Time,TemperatureF,DewpointF,PressureIn,WindDirection,WindDirectionDegrees,WindSpeedMPH,WindSpeedGustMPH,Humidity,HourlyPrecipIn,Conditions,Clouds,dailyrainin,SolarRadiationWatts/m^2,SoftwareType,DateUTC
2013-10-28 00:01:00,45.0,45.0,-100.00,NE,41,0.0,5.0,100,0.00,,,0.04,0.000000,,2013-10-28 07:01:00,
2013-10-28 00:42:00,46.0,46.0,-100.00,ENE,63,0.0,6.0,100,0.00,,,0.04,0.000000,,2013-10-28 07:42:00,
2013-10-28 00:52:00,46.0,46.0,-100.00,ENE,63,0.0,6.0,100,0.00,,,0.04,0.000000,,2013-10-28 07:52:00,
2013-10-28 01:02:00,46.0,46.0,-100.00,ENE,63,0.0,6.0,100,0.00,,,0.04,0.000000,,2013-10-28 08:02:00,
2013-10-28 01:42:00,45.0,45.0,-100.00,ENE,66,4.0,5.0,100,0.00,,,0.04,0.000000,,2013-10-28 08:42:00,
2013-10-28 01:52:00,45.0,45.0,-100.00,ENE,66,4.0,5.0,100,0.00,,,0.04,0.000000,,2013-10-28 08:52:00,
2013-10-28 02:02:00,45.0,45.0,-100.00,ENE,66,4.0,5.0,100,0.00,,,0.04,0.000000,,2013-10-28 09:02:00,
2013-10-28 02:43:00,43.0,43.0,-100.00,ENE,60,0.0,7.0,100,0.00,,,0.04,0.000000,,2013-10-28 09:43:00,
2013-10-28 02:53:00,43.0,43.0,-100.00,ENE,60,0.0,7.0,100,0.00,,,0.04,0.000000,,2013-10-28 09:53:00,
2013-10-28 03:03:00,43.0,43.0,-100.00,ENE,60,0.0,7.0,100,0.00,,,0.04,0.000000,,2013-10-28 10:03:00,
2013-10-28 03:43:00,41.0,41.0,-100.00,SE,137,0.0,6.0,100,0.00,,,0.04,0.000000,,2013-10-28 10:43:00,
2013-10-28 03:53:00,41.0,41.0,-100.00,SE,137,0.0,6.0,100,0.00,,,0.04,0.000000,,2013-10-28 10:53:00,
2013-10-28 04:03:00,41.0,41.0,-100.00,SE,137,0.0,6.0,100,0.00,,,0.04,0.000000,,2013-10-28 11:03:00,
2013-10-28 04:42:00,39.0,39.0,-100.00,SSE,151,0.0,4.0,100,0.00,,,0.04,0.000000,,2013-10-28 11:42:00,
2013-10-28 04:52:00,39.0,39.0,-100.00,SSE,151,0.0,4.0,100,0.00,,,0.04,0.000000,,2013-10-28 11:52:00,
2013-10-28 05:01:00,39.0,39.0,-100.00,SSE,151,0.0,4.0,100,0.00,,,0.04,0.000000,,2013-10-28 12:01:00,
2013-10-28 05:42:00,37.0,37.0,-100.00,WNW,285,0.0,4.0,100,0.00,,,0.04,0.000000,,2013-10-28 12:42:00,
2013-10-28 05:52:00,37.0,37.0,-100.00,WNW,285,0.0,4.0,100,0.00,,,0.04,0.000000,,2013-10-28 12:52:00,
2013-10-28 06:01:00,37.0,37.0,-100.00,WNW,285,0.0,4.0,100,0.00,,,0.04,0.000000,,2013-10-28 13:01:00,
2013-10-28 06:42:00,42.0,42.0,-100.00,East,93,1.0,6.0,100,0.00,,,0.04,0.000000,,2013-10-28 13:42:00,
2013-10-28 06:52:00,42.0,42.0,-100.00,East,93,1.0,6.0,100,0.00,,,0.04,0.000000,,2013-10-28 13:52:00,
2013-10-28 07:02:00,42.0,42.0,-100.00,East,93,1.0,6.0,100,0.00,,,0.04,0.000000,,2013-10-28 14:02:00,
2013-10-28 07:42:00,42.0,42.0,-100.00,East,95,0.0,5.0,100,0.00,,,0.04,0.000000,,2013-10-28 14:42:00,
2013-10-28 07:52:00,42.0,42.0,-100.00,East,95,0.0,5.0,100,0.00,,,0.04,0.000000,,2013-10-28 14:52:00,
2013-10-28 08:02:00,42.0,42.0,-100.00,East,95,0.0,5.0,100,0.00,,,0.04,0.000000,,2013-10-28 15:02:00,
2013-10-28 08:43:00,41.0,41.0,-100.00,NE,53,3.0,6.0,100,0.00,,,0.04,1.000000,,2013-10-28 15:43:00,
2013-10-28 08:53:00,41.0,41.0,-100.00,NE,53,3.0,6.0,100,0.00,,,0.04,1.000000,,2013-10-28 15:53:00,
2013-10-28 09:03:00,41.0,41.0,-100.00,NE,53,3.0,6.0,100,0.00,,,0.04,1.000000,,2013-10-28 16:03:00,
2013-10-28 09:43:00,42.0,42.0,-100.00,NNE,20,0.0,6.0,100,0.00,,,0.04,56.000000,,2013-10-28 16:43:00,
2013-10-28 09:53:00,42.0,42.0,-100.00,NNE,20,0.0,6.0,100,0.00,,,0.04,56.000000,,2013-10-28 16:53:00,
2013-10-28 10:02:00,42.0,42.0,-100.00,NNE,20,0.0,6.0,100,0.00,,,0.04,56.000000,,2013-10-28 17:02:00,
2013-10-28 10:42:00,49.0,49.0,-100.00,NNE,22,0.0,4.0,100,0.00,,,0.04,257.000000,,2013-10-28 17:42:00,
2013-10-28 10:52:00,49.0,49.0,-100.00,NNE,22,0.0,4.0,100,0.00,,,0.04,257.000000,,2013-10-28 17:52:00,
2013-10-28 11:02:00,49.0,49.0,-100.00,NNE,22,0.0,4.0,100,0.00,,,0.04,257.000000,,2013-10-28 18:02:00,
2013-10-28 11:52:00,54.0,54.0,-100.00,NE,52,1.0,5.0,100,0.00,,,0.04,399.000000,,2013-10-28 18:52:00,
2013-10-28 12:01:00,54.0,54.0,-100.00,NE,52,1.0,5.0,100,0.00,,,0.04,399.000000,,2013-10-28 19:01:00,
2013-10-28 12:52:00,59.0,50.0,-100.00,NE,53,0.0,4.0,73,0.00,,,0.01,496.000000,,2013-10-28 19:52:00,
2013-10-28 13:02:00,59.0,50.0,-100.00,NE,53,0.0,4.0,73,0.00,,,0.01,496.000000,,2013-10-28 20:02:00,
2013-10-28 13:42:00,59.0,47.0,-100.00,North,358,4.0,8.0,64,0.00,,,0.01,544.000000,,2013-10-28 20:42:00,
2013-10-28 13:52:00,59.0,47.0,-100.00,North,358,4.0,8.0,64,0.00,,,0.01,544.000000,,2013-10-28 20:52:00,
2013-10-28 14:02:00,59.0,47.0,-100.00,North,358,4.0,8.0,64,0.00,,,0.01,544.000000,,2013-10-28 21:02:00,
2013-10-28 14:22:00,59.0,45.0,-100.00,NNW,335,7.0,11.0,60,0.00,,,0.01,542.000000,,2013-10-28 21:22:00,
2013-10-28 14:34:00,59.0,45.0,-100.00,NNW,335,7.0,11.0,60,0.00,,,0.01,542.000000,,2013-10-28 21:34:00,
2013-10-28 14:43:00,59.0,45.0,-100.00,NNW,335,7.0,11.0,60,0.00,,,0.01,542.000000,,2013-10-28 21:43:00,
2013-10-28 14:54:00,59.0,45.0,-100.00,NNW,335,7.0,11.0,60,0.00,,,0.01,542.000000,,2013-10-28 21:54:00,
2013-10-28 15:03:00,59.0,45.0,-100.00,NNW,335,7.0,11.0,60,0.00,,,0.01,542.000000,,2013-10-28 22:03:00,
2013-10-28 15:43:00,60.0,46.0,-100.00,NNW,340,6.0,12.0,59,0.00,,,0.00,499.000000,,2013-10-28 22:43:00,
2013-10-28 15:53:00,60.0,46.0,-100.00,NNW,340,6.0,12.0,59,0.00,,,0.00,499.000000,,2013-10-28 22:53:00,
2013-10-28 16:02:00,60.0,46.0,-100.00,NNW,340,6.0,12.0,59,0.00,,,0.00,499.000000,,2013-10-28 23:02:00,
2013-10-28 16:43:00,57.0,44.0,-100.00,NNW,343,8.0,14.0,61,0.00,,,0.00,378.000000,,2013-10-28 23:43:00,
2013-10-28 16:52:00,57.0,44.0,-100.00,NNW,343,8.0,14.0,61,0.00,,,0.00,378.000000,,2013-10-28 23:52:00,
2013-10-28 17:01:00,57.0,44.0,-100.00,NNW,343,8.0,14.0,61,0.00,,,0.00,378.000000,,2013-10-29 00:01:00,
2013-10-28 17:22:00,58.0,47.0,-100.00,North,350,4.0,14.0,67,0.00,,,0.00,243.000000,,2013-10-29 00:22:00,
2013-10-28 17:32:00,58.0,47.0,-100.00,North,350,4.0,14.0,67,0.00,,,0.00,243.000000,,2013-10-29 00:32:00,
2013-10-28 17:42:00,58.0,47.0,-100.00,North,350,4.0,14.0,67,0.00,,,0.00,243.000000,,2013-10-29 00:42:00,
2013-10-28 17:52:00,58.0,47.0,-100.00,North,350,4.0,14.0,67,0.00,,,0.00,243.000000,,2013-10-29 00:52:00,
2013-10-28 18:01:00,58.0,47.0,-100.00,North,350,4.0,14.0,67,0.00,,,0.00,243.000000,,2013-10-29 01:01:00,
2013-10-28 19:44:00,50.0,39.0,-100.00,ESE,117,0.0,9.0,67,-99.99,,,0.00,1.000000,,2013-10-29 02:44:00,
2013-10-28 19:54:00,50.0,39.0,-100.00,ESE,117,0.0,9.0,67,-99.99,,,0.00,1.000000,,2013-10-29 02:54:00,
2013-10-28 20:03:00,50.0,39.0,-100.00,ESE,117,0.0,9.0,67,-99.99,,,0.00,1.000000,,2013-10-29 03:03:00,
2013-10-28 20:40:00,-999.0,-99.9,-100.00,NW,319,0.0,3.0,83,0.00,,,0.00,0.000000,,2013-10-29 03:40:00,
2013-10-28 20:48:00,44.0,39.0,-100.00,NW,319,0.0,3.0,83,0.00,,,0.00,0.000000,,2013-10-29 03:48:00,
2013-10-28 20:55:00,44.0,39.0,-100.00,NW,319,0.0,3.0,83,0.00,,,0.00,0.000000,,2013-10-29 03:55:00,
2013-10-28 21:03:00,44.0,39.0,-100.00,NW,319,0.0,3.0,83,0.00,,,0.00,0.000000,,2013-10-29 04:03:00,
2013-10-28 21:04:00,44.0,43.0,-100.00,NE,46,0.0,4.0,95,0.00,,,0.00,0.000000,,2013-10-29 04:04:00,
2013-10-28 21:44:00,44.0,43.0,-100.00,NE,46,0.0,4.0,95,0.00,,,0.00,0.000000,,2013-10-29 04:44:00,
2013-10-28 21:57:00,44.0,43.0,-100.00,NE,46,0.0,4.0,95,0.00,,,0.00,0.000000,,2013-10-29 04:57:00,
2013-10-28 22:04:00,41.0,40.0,-100.00,NW,319,0.0,3.0,97,0.00,,,0.00,0.000000,,2013-10-29 05:04:00,
2013-10-28 22:45:00,41.0,40.0,-100.00,NW,319,0.0,3.0,97,0.00,,,0.00,0.000000,,2013-10-29 05:45:00,
2013-10-28 22:52:00,41.0,40.0,-100.00,NW,319,0.0,3.0,97,0.00,,,0.00,0.000000,,2013-10-29 05:52:00,
2013-10-28 23:43:00,41.0,41.0,-100.00,SSE,151,0.0,4.0,100,0.00,,,0.00,0.000000,,2013-10-29 06:43:00,
2013-10-28 23:52:00,41.0,41.0,-100.00,SSE,151,0.0,4.0,100,0.00,,,0.00,0.000000,,2013-10-29 06:52:00,